COSMOS 2251 DEB, 34340

Orbit data source: Space-Track

COSMOS 2251 DEB, 34340 is space debris in LEO originally from a launch on Wed, 16 Jun 1993 UTC launched from the Plesetsk Missile And Space Complex (PKMTR). The debris from Iridium 33, an American commercial communications satellite, has been tracked extensively since its accidental collision with the defunct Russian satellite Cosmos 2251 in 2009. This event, occurring at high speed in low Earth orbit (LEO), generated thousands of pieces of space debris, significantly increasing the risk of further collisions. The Iridium 33 debris cloud has impacted space traffic management and orbital debris mitigation strategies, making it a subject of ongoing study in space situational awareness.

Loading next visibility...
Identifier
34340, 1993-036PN
Orbit
LEO
Country
Flag of CISCIS
Related business
Manufacturer
Unknown
Mission
Spacecraft
Bus & Motor
Unknown
Mass
Unknown
Launch date (UTC)
1993-06-16 (33 years ago)
Launch vehicle
Unknown
Launch site
Plesetsk Missile And Space Complex (PKMTR)
Object type
Payload
Rocket body
Debris
Shape & HBR
Unknown shape, 0.1 m
Radar Cross Section
Small (<0.1 m²)

Expand to show TLE details & history
Last TLE update: 1 day ago

TLE from 1 day ago
0 COSMOS 2251 DEB
1 34340U 93036PN  26062.36116126  .00002371  00000-0  16896-2 0  9992
2 34340  74.0782 173.2853 0288876 263.0576 153.3282 13.79868888853805
Epoch: 2026-03-03T08:40Z
TLE epoch observation values (Epoch: 2026-03-03T08:40:04.332Z)
Latitude
54.58634°
Longitude
-94.34699°
Altitude
1,163.75 km
Speed
7.181 km/s
True Right ascension
13h 07m 14s
True Declination
54° 25' 57"
Sunlit
Object was in full shadow at epoch
Visualization orbit readout
Latitude
Unknown
Longitude
Unknown
Altitude
Unknown
Speed
Unknown
Apparent Right ascension
Unknown
Apparent Declination
Unknown
Sunlit
N/A
Visualization observer readout
Local Sidereal Time
19:19:39
Azimuth
Unknown
Elevation
Unknown
Doppler factor
Unknown
Orbital elements
Apogee altitude
1,174.072 km
Perigee altitude
749.992 km
Semi-major axis
7,340.169 km
Eccentricity
0.02889
Inclination
74.0782°
RAAN
173.2853°
Arg. of periapsis
263.0576°
True anomaly
154.76746°
Mean anomaly
153.3282°
Eccentric anomaly
154.0524°
Mean motion
3.45131 °/min
Orbital period
104.31 mins
BSTAR
0.0016896

Documentation

Showing up to 5 results
|